Location: NCO
(38.4404°N, 77.1340°W)
Time: 20:02:22
(UTC-05:00)

Amateur Radio Satellites - All Passes

Search period start: 20 November 2017 19:32
Search period end: 21 November 2017 19:32
Location: NCO, 38.4404°N, 77.1340°W

Satellite Date Start Highest point End Downlink Frequencies (MHz)
Time Altitude Azimuth
SEEDS 20 Nov 19:37:03 19:40:23 23° 265° (W) 19:43:44 437.485
FO-29 20 Nov 19:38:23 19:44:42 26° 91° (E) 19:50:40 435.910
AAUSAT CUBESAT 2 20 Nov 19:45:03 19:48:58 43° 261° (W) 19:52:56 437.432
nSIGHT-1 20 Nov 19:52:55 19:55:15 19° 131° (SE) 19:57:35 .
CUBEBUG 2 20 Nov 19:55:01 19:58:09 18° 267° (W) 20:01:15 437.445
AO-73 20 Nov 19:58:45 20:03:01 57° 260° (W) 20:07:13 145.935
SRMSAT 20 Nov 19:59:17 20:01:29 12° 181° (S) 20:03:41 437.500
Max Valier Satellite 20 Nov 20:03:40 20:04:48 11° 66° (ENE) 20:05:55 145.860
Oscar 11 20 Nov 20:15:53 20:20:06 55° 260° (W) 20:24:20 .
DELFI C3 20 Nov 20:21:50 20:25:19 30° 71° (ENE) 20:28:49 145.870
SO-50 20 Nov 20:31:46 20:33:16 11° 107° (ESE) 20:34:46 436.795
ISS 20 Nov 20:34:03 20:37:08 41° 136° (SE) 20:40:16 437.550
STRAND 1 20 Nov 20:43:24 20:47:34 26° 293° (WNW) 20:51:44 437.568
ZACube-1 20 Nov 20:45:21 20:48:00 16° 267° (W) 20:50:37 437.345
NO-84 20 Nov 20:45:50 20:48:15 15° 23° (NNE) 20:50:40 435.350 FM
RS-15 20 Nov 20:45:56 20:57:17 41° 317° (NW) 21:08:35 29.354- 29.394
UNISAT 6 20 Nov 20:49:51 20:51:32 12° 91° (E) 20:53:14 437.425
TIGRISAT 20 Nov 20:54:18 20:56:04 12° 91° (E) 20:57:50 435.000
FO-29 20 Nov 21:22:23 21:30:07 62° 289° (WNW) 21:37:23 435.910
nSIGHT-1 20 Nov 21:28:13 21:31:16 39° 326° (NW) 21:34:20 .
EO-88 20 Nov 21:34:12 21:37:46 66° 260° (W) 21:41:23 145.990 - 145.960
Max Valier Satellite 20 Nov 21:34:42 21:38:11 42° 261° (W) 21:41:41 145.860
DELFI C3 20 Nov 21:57:22 22:00:05 18° 266° (W) 22:02:49 145.870
PRISM 20 Nov 21:58:11 22:01:35 24° 96° (E) 22:04:58 437.425
LO-87 20 Nov 22:00:50 22:03:55 27° 71° (ENE) 22:06:59 145.935 - 145.965
SO-50 20 Nov 22:08:41 22:13:06 66° 303° (WNW) 22:17:35 436.795
ISS 20 Nov 22:11:03 22:13:44 23° 332° (NNW) 22:16:26 437.550
NO-84 20 Nov 22:22:07 22:26:22 59° 42° (NE) 22:30:32 435.350 FM
UNISAT 6 20 Nov 22:24:24 22:28:33 50° 286° (WNW) 22:32:39 437.425
TIGRISAT 20 Nov 22:28:55 22:33:02 49° 287° (WNW) 22:37:07 435.000
O/OREOS (USA 219) 20 Nov 22:30:04 22:33:33 21° 59° (ENE) 22:36:59 437.305
AIST 2D 20 Nov 22:36:27 22:38:58 18° 95° (E) 22:41:30 435.315
SPROUT 20 Nov 22:48:06 22:50:59 18° 67° (ENE) 22:53:51 437.525
QB50P2 20 Nov 22:58:18 23:00:18 13° 92° (E) 23:02:19 145.880/145.840
ESTCUBE 1 20 Nov 22:58:52 23:03:20 79° 258° (WSW) 23:07:50 437.505/2401.250
RS-15 20 Nov 23:06:39 23:14:37 19° 350° (N) 23:22:26 29.354- 29.394
nSIGHT-1 20 Nov 23:07:19 23:08:13 11° 345° (NNW) 23:09:06 .
FO-29 20 Nov 23:10:39 23:13:29 12° 308° (NW) 23:16:18 435.910
VELOX 1 20 Nov 23:22:08 23:25:53 28° 69° (ENE) 23:29:40 145.980
PRISM 20 Nov 23:33:20 23:36:45 25° 291° (WNW) 23:40:08 437.425
LO-87 20 Nov 23:34:59 23:37:18 16° 266° (W) 23:39:37 145.935 - 145.965
DUCHIFAT 1 20 Nov 23:47:11 23:50:58 33° 97° (E) 23:54:44 145.980
EO-79 20 Nov 23:53:43 23:57:50 54° 100° (E) 00:01:55 145.935-145.965
NANOSAT C BR1 20 Nov 23:57:17 00:01:22 52° 100° (E) 00:05:25 145.865
50 SAT 20 Nov 23:58:20 23:59:27 11° 67° (ENE) 00:00:34 437.505
NO-84 21 Nov 00:00:31 00:03:20 17° 237° (WSW) 00:06:07 435.350 FM
POLYITAN 1 21 Nov 00:08:51 00:13:02 83° 100° (E) 00:17:13 437.675
O/OREOS (USA 219) 21 Nov 00:08:54 00:13:02 35° 256° (WSW) 00:17:07 437.305
AIST 2D 21 Nov 00:09:16 00:12:04 22° 289° (WNW) 00:14:51 435.315
DX 1 21 Nov 00:09:35 00:12:49 21° 67° (ENE) 00:16:05 434.975-435.025
PCSat 21 Nov 00:12:54 00:18:17 74° 115° (ESE) 00:23:43 145.827
SPROUT 21 Nov 00:22:35 00:26:34 37° 262° (W) 00:30:33 437.525
QB50P2 21 Nov 00:32:17 00:36:19 45° 287° (WNW) 00:40:18 145.880/145.840
Gurwin Techsat 1B 21 Nov 00:36:31 00:38:12 11° 90° (E) 00:39:53 435.225
BUGSAT 1 21 Nov 00:41:31 00:45:08 31° 97° (E) 00:48:43 437.445
UKube-1 21 Nov 00:51:41 00:55:38 36° 71° (ENE) 00:59:37 .
VELOX 1 21 Nov 00:58:38 01:02:16 25° 265° (W) 01:05:55 145.980
DUCHIFAT 1 21 Nov 01:23:29 01:26:22 18° 293° (WNW) 01:29:14 145.980
RS-15 21 Nov 01:23:56 01:33:20 25° 27° (NNE) 01:42:20 29.354- 29.394
50 SAT 21 Nov 01:28:17 01:31:13 31° 262° (W) 01:34:08 437.505
ISS 21 Nov 01:28:22 01:28:55 10° 13° (NNE) 01:29:30 437.550
EO-79 21 Nov 01:31:24 01:33:05 12° 296° (WNW) 01:34:47 145.935-145.965
BEESAT 3 21 Nov 01:32:44 01:34:28 12° 108° (ESE) 01:36:11 437.485
NANOSAT C BR1 21 Nov 01:34:47 01:36:36 13° 295° (WNW) 01:38:23 145.865
BEESAT 21 Nov 01:39:00 01:42:11 18° 65° (ENE) 01:45:21 436.000
DX 1 21 Nov 01:44:50 01:48:46 33° 262° (W) 01:52:44 434.975-435.025
ITUPSAT 1 21 Nov 01:47:57 01:51:34 22° 66° (ENE) 01:55:09 437.325
Oscar 19 21 Nov 01:50:53 01:56:04 88° 285° (WNW) 02:01:15 437.125/150
M-CUBED/EXP-1 PRIME 21 Nov 01:57:50 02:00:44 16° 98° (E) 02:03:40 437.505
PCSat 21 Nov 01:58:42 02:02:15 17° 314° (NW) 02:05:49 145.827
MOZHAYETS 4 21 Nov 02:02:57 02:07:10 37° 71° (ENE) 02:11:21
Gurwin Techsat 1B 21 Nov 02:13:21 02:18:41 79° 285° (WNW) 02:24:00 435.225
CUBESAT XI-V 21 Nov 02:16:30 02:18:07 12° 63° (ENE) 02:19:44 437.345
AO-7 21 Nov 02:16:46 02:22:22 19° 93° (E) 02:27:55 .
BUGSAT 1 21 Nov 02:17:29 02:20:14 18° 293° (WNW) 02:22:58 437.445
nSIGHT-1 21 Nov 02:20:33 02:22:57 19° 26° (NNE) 02:25:21 .
UKube-1 21 Nov 02:28:49 02:31:44 18° 266° (W) 02:34:41 .
BEESAT 2 21 Nov 02:41:56 02:44:56 21° 111° (ESE) 02:47:59 435.950
ISS 21 Nov 03:03:11 03:06:12 33° 32° (NNE) 03:09:11 437.550
BEESAT 3 21 Nov 03:07:39 03:11:32 50° 304° (NW) 03:15:27 437.485
BEESAT 21 Nov 03:14:58 03:19:33 46° 260° (W) 03:24:10 436.000
ITUPSAT 1 21 Nov 03:24:40 03:29:07 38° 262° (W) 03:33:34 437.325
AO-85 21 Nov 03:26:47 03:29:49 22° 112° (ESE) 03:32:55 145.980
M-CUBED/EXP-1 PRIME 21 Nov 03:30:51 03:35:15 49° 291° (WNW) 03:39:43 437.505
Oscar 19 21 Nov 03:33:29 03:34:34 11° 301° (WNW) 03:35:39 437.125/150
RS-15 21 Nov 03:36:38 03:48:31 70° 55° (NE) 03:59:41 29.354- 29.394
MOZHAYETS 4 21 Nov 03:41:09 03:44:24 19° 266° (W) 03:47:39
ITAMSAT 1 21 Nov 03:42:42 03:47:52 59° 101° (ESE) 03:52:58 435.822/435.867
CUBESAT XI-V 21 Nov 03:50:19 03:54:52 68° 259° (W) 03:59:28 437.345
nSIGHT-1 21 Nov 03:56:16 03:59:23 54° 223° (SW) 04:02:30 .
KKS-1 21 Nov 03:56:58 04:00:56 32° 70° (ENE) 04:04:55 437.445
AO-7 21 Nov 04:07:32 04:15:54 82° 290° (WNW) 04:24:16 .
BEESAT 2 21 Nov 04:18:50 04:22:27 32° 308° (NW) 04:26:07 435.950
STARS 21 Nov 04:22:21 04:25:53 24° 68° (ENE) 04:29:26 437.465
YUBILEINY 21 Nov 04:26:12 04:33:10 28° 82° (E) 04:40:09 435.215
DOVE 4 21 Nov 04:27:17 04:31:46 29° 94° (E) 04:36:01 437.250
ISS 21 Nov 04:39:53 04:42:34 24° 228° (SW) 04:45:14 437.550
SO-50 21 Nov 05:03:17 05:04:22 11° 39° (NE) 05:05:28 436.795
AO-85 21 Nov 05:06:41 05:10:03 27° 310° (NW) 05:13:32 145.980
CUTE-I 21 Nov 05:14:56 05:17:48 14° 91° (E) 05:20:39 437.470
XW-2C 21 Nov 05:16:31 05:18:39 14° 93° (E) 05:20:47 145.795 - 145.815
LilacSat-2 21 Nov 05:17:58 05:20:27 16° 94° (E) 05:22:56 437.200
ITAMSAT 1 21 Nov 05:23:35 05:26:47 17° 298° (WNW) 05:30:00 435.822/435.867
XW-2F 21 Nov 05:26:57 05:29:36 18° 94° (E) 05:32:15 145.980 - 146.000
KKS-1 21 Nov 05:34:02 05:37:30 22° 265° (W) 05:40:58 437.445
RS-15 21 Nov 05:50:19 05:59:51 31° 257° (WSW) 06:09:03 29.354- 29.394
KAITUO 1B 21 Nov 05:54:33 05:57:54 30° 97° (E) 06:01:16 145.475/437.950
STARS 21 Nov 05:58:12 06:02:03 29° 263° (W) 06:05:56 437.465
AO-7 21 Nov 06:02:17 06:07:25 18° 309° (NW) 06:12:35 .
DOVE 4 21 Nov 06:04:51 06:09:20 30° 291° (WNW) 06:13:38 437.250
XW-2D 21 Nov 06:08:45 06:12:33 72° 100° (E) 06:16:22 145.860 - 145.880
HO-68 21 Nov 06:15:22 06:21:12 26° 95° (E) 06:26:59 435.675
STRAND 1 21 Nov 06:18:09 06:22:59 43° 71° (ENE) 06:27:52 437.568
YUBILEINY 21 Nov 06:20:42 06:29:17 60° 281° (WNW) 06:37:59 435.215
XW-2B 21 Nov 06:23:34 06:27:23 76° 282° (WNW) 06:31:11 145.730 - 145.750
NUDT-PHONESAT 21 Nov 06:39:10 06:42:51 69° 284° (WNW) 06:46:32 437.300
SO-50 21 Nov 06:40:59 06:45:38 71° 57° (ENE) 06:50:20 436.795
XW-2C 21 Nov 06:49:27 06:52:55 34° 287° (WNW) 06:56:23 145.795 - 145.815
CUTE 1.7 + AOD 2 21 Nov 06:50:22 06:54:28 44° 99° (E) 06:58:34 437.475
LilacSat-2 21 Nov 06:51:22 06:54:45 30° 288° (WNW) 06:58:08 437.200
CUTE-I 21 Nov 06:52:57 06:58:16 65° 287° (WNW) 07:03:32 437.470
XW-2F 21 Nov 07:00:27 07:03:41 27° 289° (WNW) 07:06:55 145.980 - 146.000
UWE-3 21 Nov 07:06:59 07:10:04 20° 94° (E) 07:13:10 435.000/436.395/437.385
SEEDS 21 Nov 07:20:59 07:25:12 61° 100° (E) 07:29:23 437.485
AAUSAT CUBESAT 2 21 Nov 07:28:24 07:32:05 30° 96° (E) 07:35:47 437.432
KAITUO 1B 21 Nov 07:29:13 07:31:37 16° 292° (WNW) 07:34:01 145.475/437.950
FO-29 21 Nov 07:31:41 07:38:03 55° 70° (ENE) 07:45:12 435.910
CUBEBUG 2 21 Nov 07:45:33 07:49:42 73° 285° (WNW) 07:53:49 437.445
AO-73 21 Nov 07:48:12 07:51:45 27° 96° (E) 07:55:18 145.935
UNISAT 6 21 Nov 07:48:19 07:49:23 11° 63° (ENE) 07:50:25 437.425
TIGRISAT 21 Nov 07:52:35 07:53:44 11° 63° (ENE) 07:54:53 435.000
STRAND 1 21 Nov 07:58:32 08:02:20 21° 266° (W) 08:06:09 437.568
HO-68 21 Nov 08:02:15 08:09:13 55° 291° (WNW) 08:16:09 435.675
XW-2A 21 Nov 08:02:31 08:05:53 78° 282° (WNW) 08:09:15 145.665 - 145.685
Oscar 11 21 Nov 08:04:38 08:08:25 28° 96° (E) 08:12:10 .
SO-50 21 Nov 08:23:49 08:25:31 12° 253° (WSW) 08:27:13 436.795
CUTE 1.7 + AOD 2 21 Nov 08:27:28 08:29:54 15° 294° (WNW) 08:32:20 437.475
ZACube-1 21 Nov 08:32:50 08:36:57 74° 284° (WNW) 08:41:07 437.345
UWE-3 21 Nov 08:42:58 08:46:32 28° 289° (WNW) 08:50:05 435.000/436.395/437.385
PRISM 21 Nov 08:46:47 08:49:07 15° 65° (ENE) 08:51:29 437.425
SEEDS 21 Nov 08:59:02 09:00:19 11° 296° (WNW) 09:01:36 437.485
PCSat 21 Nov 09:02:21 09:07:30 42° 56° (NE) 09:12:37 145.827
AAUSAT CUBESAT 2 21 Nov 09:04:13 09:07:20 20° 292° (WNW) 09:10:26 437.432
EO-88 21 Nov 09:06:03 09:07:10 11° 92° (E) 09:08:17 145.990 - 145.960
Max Valier Satellite 21 Nov 09:06:27 09:08:56 17° 94° (E) 09:11:24 145.860
FO-29 21 Nov 09:18:12 09:23:29 25° 270° (W) 09:29:18 435.910
UNISAT 6 21 Nov 09:20:53 09:25:28 74° 258° (WSW) 09:29:59 437.425
AO-73 21 Nov 09:24:39 09:27:50 22° 291° (WNW) 09:31:01 145.935
TIGRISAT 21 Nov 09:25:14 09:29:49 72° 258° (WSW) 09:34:20 435.000
FALCONSAT 3 21 Nov 09:30:12 09:33:14 24° 159° (SSE) 09:36:16 435.103
DELFI C3 21 Nov 09:33:55 09:37:54 61° 101° (E) 09:41:50 145.870
Oscar 11 21 Nov 09:40:59 09:44:23 23° 291° (WNW) 09:47:46 .
PRISM 21 Nov 10:20:06 10:24:00 42° 261° (W) 10:27:57 437.425
EO-88 21 Nov 10:37:32 10:40:58 39° 286° (WNW) 10:44:23 145.990 - 145.960
DUCHIFAT 1 21 Nov 10:37:45 10:40:55 21° 68° (ENE) 10:44:06 145.980
Max Valier Satellite 21 Nov 10:39:38 10:42:43 26° 289° (WNW) 10:45:49 145.860
AIST 2D 21 Nov 10:40:49 10:44:15 85° 254° (WSW) 10:47:44 435.315
EO-79 21 Nov 10:44:28 10:48:16 32° 71° (ENE) 10:52:03 145.935-145.965
PCSat 21 Nov 10:46:17 10:50:37 25° 253° (WSW) 10:54:56 145.827
NANOSAT C BR1 21 Nov 10:47:43 10:51:27 31° 71° (ENE) 10:55:11 145.865
ESTCUBE 1 21 Nov 10:53:11 10:56:53 24° 95° (E) 11:00:33 437.505/2401.250
POLYITAN 1 21 Nov 10:59:28 11:03:33 48° 73° (ENE) 11:07:39 437.675
LO-87 21 Nov 11:01:40 11:05:00 39° 99° (E) 11:08:19 145.935 - 145.965
BEESAT 2 21 Nov 11:02:05 11:02:49 10° 42° (NE) 11:03:34 435.950
FALCONSAT 3 21 Nov 11:08:24 11:11:58 50° 174° (S) 11:15:34 435.103
QB50P2 21 Nov 11:22:37 11:26:51 78° 258° (WSW) 11:31:07 145.880/145.840
BEESAT 3 21 Nov 11:25:25 11:29:18 52° 56° (ENE) 11:33:05 437.485
BUGSAT 1 21 Nov 11:30:01 11:33:03 20° 68° (ENE) 11:36:05 437.445
Oscar 19 21 Nov 11:30:09 11:32:38 14° 61° (ENE) 11:35:07 437.125/150
Gurwin Techsat 1B 21 Nov 11:55:19 11:58:47 18° 63° (ENE) 12:02:16 435.225
AO-85 21 Nov 11:58:02 12:01:26 19° 47° (NE) 12:05:01 145.980
SPROUT 21 Nov 12:09:16 12:13:14 38° 98° (E) 12:17:10 437.525
DUCHIFAT 1 21 Nov 12:12:41 12:16:23 29° 263° (W) 12:20:06 145.980
EO-79 21 Nov 12:21:01 12:24:03 19° 266° (W) 12:27:05 145.935-145.965
NANOSAT C BR1 21 Nov 12:24:04 12:27:10 20° 266° (W) 12:30:16 145.865
ESTCUBE 1 21 Nov 12:29:42 12:33:38 29° 290° (WNW) 12:37:33 437.505/2401.250
LO-87 21 Nov 12:36:53 12:38:00 11° 294° (WNW) 12:39:07 145.935 - 145.965
BEESAT 2 21 Nov 12:37:06 12:41:08 89° 241° (WSW) 12:45:06 435.950
POLYITAN 1 21 Nov 12:37:41 12:39:34 13° 268° (W) 12:41:27 437.675
O/OREOS (USA 219) 21 Nov 12:40:27 12:44:27 30° 103° (ESE) 12:48:29 437.305
M-CUBED/EXP-1 PRIME 21 Nov 12:43:21 12:44:51 12° 59° (ENE) 12:46:25 437.505
FALCONSAT 3 21 Nov 12:47:19 12:50:51 45° 189° (S) 12:54:24 435.103
50 SAT 21 Nov 12:48:35 12:49:25 11° 93° (E) 12:50:15 437.505
VELOX 1 21 Nov 12:48:54 12:53:21 68° 102° (ESE) 12:57:45 145.980
BUGSAT 1 21 Nov 13:04:25 13:08:10 31° 262° (W) 13:11:56 437.445
BEESAT 3 21 Nov 13:05:05 13:06:19 11° 252° (WSW) 13:07:31 437.485
Oscar 19 21 Nov 13:06:13 13:11:19 71° 258° (WSW) 13:16:26 437.125/150
AO-7 21 Nov 13:14:22 13:20:50 26° 56° (ENE) 13:27:19 .
Gurwin Techsat 1B 21 Nov 13:33:02 13:38:14 57° 259° (W) 13:43:29 435.225
DX 1 21 Nov 13:33:53 13:38:05 44° 100° (E) 13:42:15 434.975-435.025
AO-85 21 Nov 13:37:27 13:42:08 57° 243° (WSW) 13:47:08 145.980
NO-84 21 Nov 13:37:53 13:39:21 12° 120° (ESE) 13:40:51 435.350 FM
SPROUT 21 Nov 13:46:02 13:48:47 17° 294° (WNW) 13:51:32 437.525
UKube-1 21 Nov 14:15:22 14:19:42 83° 101° (E) 14:24:02 .
M-CUBED/EXP-1 PRIME 21 Nov 14:15:26 14:18:46 43° 256° (WSW) 14:22:23 437.505
50 SAT 21 Nov 14:18:44 14:21:36 30° 288° (WNW) 14:24:27 437.505
O/OREOS (USA 219) 21 Nov 14:20:03 14:23:50 25° 300° (WNW) 14:27:39 437.305
FALCONSAT 3 21 Nov 14:26:49 14:29:32 19° 204° (SSW) 14:32:16 435.103
VELOX 1 21 Nov 14:27:47 14:29:11 11° 297° (WNW) 14:30:34 145.980
YUBILEINY 21 Nov 14:39:55 14:42:37 11° 58° (ENE) 14:45:17 435.215
ITAMSAT 1 21 Nov 14:59:00 15:04:13 79° 75° (ENE) 15:09:29 435.822/435.867
AO-7 21 Nov 15:04:38 15:12:52 70° 255° (WSW) 15:21:10 .
DX 1 21 Nov 15:11:12 15:13:52 16° 295° (WNW) 15:16:30 434.975-435.025
NO-84 21 Nov 15:12:29 15:16:05 63° 318° (NW) 15:20:00 435.350 FM
BEESAT 21 Nov 15:16:15 15:20:51 47° 100° (E) 15:25:25 436.000
ITUPSAT 1 21 Nov 15:26:04 15:30:46 60° 101° (E) 15:35:27 437.325
DOVE 4 21 Nov 15:30:44 15:34:50 26° 67° (ENE) 15:39:06 437.250
MOZHAYETS 4 21 Nov 15:35:47 15:40:22 75° 284° (WNW) 15:44:54
CUBESAT XI-V 21 Nov 15:48:20 15:52:33 32° 97° (E) 15:56:46 437.345
JUGNU 21 Nov 16:13:03 16:15:02 12° 180° (S) 16:17:02 437.505
YUBILEINY 21 Nov 16:32:30 16:41:20 66° 80° (E) 16:50:04 435.215
KAITUO 1B 21 Nov 16:34:42 16:36:05 12° 66° (ENE) 16:37:28 145.475/437.950
CUTE-I 21 Nov 16:34:49 16:38:51 22° 65° (ENE) 16:42:55 437.470
ITAMSAT 1 21 Nov 16:42:46 16:44:13 11° 270° (W) 16:45:41 435.822/435.867
HO-68 21 Nov 16:44:10 16:48:41 18° 56° (ENE) 16:53:12 435.675
XW-2D 21 Nov 16:48:39 16:51:46 26° 71° (ENE) 16:54:54 145.860 - 145.880
NO-84 21 Nov 16:52:05 16:54:10 14° 338° (NNW) 16:56:20 435.350 FM
BEESAT 21 Nov 16:55:08 16:58:12 17° 296° (WNW) 17:01:16 436.000
XW-2B 21 Nov 17:03:07 17:06:34 37° 73° (ENE) 17:10:02 145.730 - 145.750
AO-7 21 Nov 17:05:10 17:06:56 11° 272° (W) 17:08:43 .
ITUPSAT 1 21 Nov 17:05:34 17:08:03 14° 297° (WNW) 17:10:33 437.325
DOVE 4 21 Nov 17:07:42 17:12:16 36° 264° (W) 17:17:03 437.250
NUDT-PHONESAT 21 Nov 17:16:25 17:19:47 37° 74° (ENE) 17:23:10 437.300
KKS-1 21 Nov 17:25:01 17:29:30 79° 103° (ESE) 17:33:56 437.445
CUBESAT XI-V 21 Nov 17:26:00 17:29:43 24° 292° (WNW) 17:33:26 437.345
XW-2C 21 Nov 17:28:25 17:32:08 86° 80° (E) 17:35:54 145.795 - 145.815
LilacSat-2 21 Nov 17:30:54 17:34:38 81° 257° (WSW) 17:38:25 437.200
XW-2F 21 Nov 17:38:46 17:42:28 74° 258° (WSW) 17:46:12 145.980 - 146.000
CUTE 1.7 + AOD 2 21 Nov 17:41:44 17:45:12 26° 70° (ENE) 17:48:41 437.475
STARS 21 Nov 17:48:10 17:52:29 53° 101° (E) 17:56:44 437.465
RS-15 21 Nov 17:56:27 18:08:07 53° 110° (ESE) 18:19:48 29.354- 29.394
SRMSAT 21 Nov 17:59:01 18:00:11 11° 172° (S) 18:01:23 437.500
UWE-3 21 Nov 18:03:03 18:05:40 16° 67° (ENE) 18:08:15 435.000/436.395/437.385
KAITUO 1B 21 Nov 18:06:11 18:09:39 41° 261° (W) 18:13:10 145.475/437.950
SEEDS 21 Nov 18:11:04 18:14:47 33° 72° (ENE) 18:18:33 437.485
CUTE-I 21 Nov 18:13:26 18:18:33 46° 261° (W) 18:23:43 437.470
AAUSAT CUBESAT 2 21 Nov 18:17:42 18:20:21 17° 67° (ENE) 18:23:02 437.432
XW-2D 21 Nov 18:23:19 18:25:55 18° 266° (W) 18:28:32 145.860 - 145.880
HO-68 21 Nov 18:28:16 18:35:29 86° 254° (WSW) 18:42:44 435.675
YUBILEINY 21 Nov 18:30:36 18:37:19 25° 279° (W) 18:44:01 435.215
STRAND 1 21 Nov 18:31:16 18:34:26 16° 92° (E) 18:37:34 437.568
XW-2A 21 Nov 18:32:20 18:35:01 23° 71° (ENE) 18:37:42 145.665 - 145.685
XW-2B 21 Nov 18:39:16 18:40:52 12° 268° (W) 18:42:29 145.730 - 145.750
CUBEBUG 2 21 Nov 18:41:15 18:45:52 75° 75° (ENE) 18:50:20 437.445
AO-73 21 Nov 18:42:41 18:45:40 19° 68° (ENE) 18:48:38 145.935
NUDT-PHONESAT 21 Nov 18:52:22 18:53:47 12° 268° (W) 18:55:11 437.300
Oscar 11 21 Nov 18:58:32 19:01:32 19° 67° (ENE) 19:04:33 .
CUTE 1.7 + AOD 2 21 Nov 19:17:34 19:20:57 23° 265° (W) 19:24:21 437.475
STARS 21 Nov 19:26:10 19:28:19 14° 296° (WNW) 19:30:28 437.465
